Location: Foots Cray
(51.4000°N, 0.1167°E)
Time: 23:38:50
(UTC+00:00)

PSLV R/B - Pass Details

Date: 15 May 2026
Orbit: 586 x 678 km, 97.9° (Epoch: 9 June)

Event Time Altitude Azimuth Distance (km) Brightness Sun altitude
Rises 23:09:58 0° 18° (NNE) 2,874 8.0 -18.8°
Reaches altitude 10° 23:12:12 10° 24° (NNE) 1,978 6.9 -18.9°
Maximum altitude 23:16:22 49° 99° (E) 813 4.0 -19.0°
Enters shadow 23:17:25 40° 141° (SE) 932 4.0 -19.0°
